FW1093 Weather Reports


time (UTC)temp
C
wind
direction
speed
KPH
gust
KPH
rain 1hr
cm
rain 24hr
cm
rain mn
cm
humidity
%
barometer
mb
20260902092344 16 297 0.0 0.0 0.00 0.30 0.00 97 1020.6
20260902091318 16 297 0.0 0.0 0.00 0.30 0.00 96 1020.3
20260902090357 16 297 0.0 0.0 0.00 0.30 0.00 96 1020.3
20260902085330 16 297 0.0 0.0 0.00 0.30 0.00 96 1020.3
20260902084324 16 297 0.0 0.0 0.00 0.30 0.00 96 1020.1
20260902083342 16 310 0.0 1.6 0.00 0.30 0.00 96 1020.1
20260902082314 16 285 0.0 1.6 0.00 0.30 0.00 97 1019.9
20260902081333 16 283 0.0 1.6 0.00 0.30 0.00 97 1020.0
20260902080334 16 284 0.0 0.0 0.00 0.30 0.00 97 1019.9
20260902075327 16 284 0.0 1.6 0.00 0.53 0.00 97 1019.9
20260902074321 16 283 0.0 1.6 0.00 0.53 0.00 97 1019.9
20260902073313 16 282 0.0 1.6 0.00 0.53 0.00 97 1019.8
20260902072334 16 281 0.0 1.6 0.00 0.53 0.00 97 1019.8
20260902071336 16 281 0.0 1.6 0.00 0.53 0.00 97 1019.6
20260902070331 16 281 0.0 1.6 0.00 0.53 0.00 97 1019.9
20260902065325 16 281 0.0 1.6 0.00 0.84 0.00 97 1019.8
20260902064318 16 280 0.0 0.0 0.00 0.84 0.00 97 1019.8
20260902063329 16 280 0.0 0.0 0.00 0.84 0.00 97 1019.8
20260902062352 16 280 0.0 1.6 0.00 0.84 0.00 97 1019.8
20260902061324 16 280 0.0 1.6 0.00 0.84 0.00 97 1019.8
20260902060337 16 281 0.0 0.0 0.00 0.84 0.00 97 1019.8
20260902055331 16 281 0.0 0.0 0.00 0.89 0.00 97 1020.0
20260902054324 16 281 0.0 1.6 0.00 0.89 0.00 97 1019.9
20260902053343 16 281 0.0 1.6 0.00 0.89 0.00 97 1020.1
20260902052315 16 281 0.0 0.0 0.00 0.89 0.00 97 1019.9
20260902051311 16 281 0.0 1.6 0.00 0.89 0.00 97 1019.9
20260902050350 16 281 0.0 0.0 0.00 0.89 0.00 97 1019.9
20260902045322 16 281 0.0 1.6 0.00 0.89 0.00 97 1019.9
20260902044347 16 281 0.0 1.6 0.00 0.89 0.00 97 1019.6
20260902043318 16 281 0.0 1.6 0.00 0.89 0.00 97 1019.6
20260902042338 16 281 0.0 1.6 0.03 0.89 0.00 97 1019.7
20260902041315 16 276 0.0 1.6 0.03 0.89 0.00 97 1019.8
20260902040335 16 275 0.0 1.6 0.03 0.89 0.00 97 1019.7
20260902035321 16 275 0.0 1.6 0.03 0.89 0.89 97 1019.6
20260902034319 16 276 0.0 0.0 0.03 0.89 0.89 97 1019.6
20260902033313 16 276 0.0 1.6 0.03 0.89 0.89 97 1019.4
20260902032333 16 275 0.0 1.6 0.00 0.86 0.86 97 1019.3
20260902031328 16 318 0.0 0.0 0.00 0.86 0.86 97 1019.2
20260902030323 16 319 0.0 0.0 0.00 0.86 0.86 97 1019.3
20260902025315 16 268 0.0 0.0 0.00 0.86 0.86 97 1019.0
20260902024356 16 269 0.0 1.6 0.00 0.86 0.86 97 1019.0
20260902023328 16 288 0.0 3.2 0.00 0.86 0.86 97 1018.9
20260902022321 16 297 0.0 0.0 0.00 0.86 0.86 97 1019.1
20260902021313 16 295 0.0 1.6 0.00 0.86 0.86 97 1019.2
20260902020333 16 288 0.0 1.6 0.00 0.86 0.86 96 1018.9
20260902015329 16 288 0.0 1.6 0.00 0.86 0.86 96 1018.7
20260902014320 16 289 0.0 0.0 0.00 0.86 0.86 96 1018.8
20260902013329 16 289 0.0 1.6 0.00 0.86 0.86 96 1018.6
20260902012325 16 284 0.0 1.6 0.00 0.86 0.86 96 1018.3
20260902011345 16 282 0.0 1.6 0.00 0.86 0.86 96 1018.2
20260902010343 16 301 0.0 1.6 0.00 0.86 0.86 96 1018.0
20260902005316 16 316 0.0 1.6 0.05 0.86 0.86 96 1018.2
20260902004356 16 283 0.0 1.6 0.05 0.86 0.86 96 1018.1
20260902003329 16 283 0.0 1.6 0.05 0.86 0.86 96 1017.9
20260902002325 16 283 0.0 1.6 0.05 0.86 0.86 96 1017.9
20260902001315 16 287 0.0 0.0 0.05 0.86 0.86 96 1018.0
20260902000359 16 288 0.0 4.8 0.05 0.86 0.86 95 1017.8
20260901235327 17 282 0.0 1.6 0.00 0.81 0.81 95 1017.7
20260901234322 17 295 0.0 3.2 0.00 0.81 0.81 95 1017.5
20260901233315 17 333 0.0 3.2 0.00 0.81 0.81 95 1017.4
20260901232334 17 283 0.0 1.6 0.00 0.81 0.81 95 1017.5
20260901231328 17 283 0.0 3.2 0.00 0.81 0.81 95 1017.5
20260901230325 17 288 0.0 3.2 0.00 0.81 0.81 95 1017.3
20260901225313 17 293 1.6 3.2 0.00 0.81 0.81 95 1017.3
20260901224336 17 281 1.6 3.2 0.00 0.81 0.81 94 1017.0
20260901223330 18 296 0.0 1.6 0.00 0.81 0.81 95 1016.9
20260901222322 18 289 0.0 3.2 0.00 0.81 0.81 94 1016.8
20260901221312 18 281 0.0 3.2 0.00 0.81 0.81 95 1016.7
20260901220333 19 284 0.0 4.8 0.00 0.81 0.81 95 1016.6
20260901215325 20 283 1.6 3.2 0.00 0.81 0.81 94 1016.1
20260901214336 20 281 0.0 3.2 0.00 0.81 0.81 94 1016.1
20260901213332 20 292 0.0 1.6 0.00 0.81 0.81 93 1016.2
20260901212323 21 345 0.0 1.6 0.00 0.81 0.81 93 1016.1
20260901211321 21 259 0.0 1.6 0.00 0.81 0.81 93 1015.9
20260901210329 22 259 0.0 1.6 0.00 0.81 0.81 93 1016.0
20260901205325 22 256 0.0 0.0 0.00 0.81 0.81 92 1015.8
20260901204320 22 266 0.0 0.0 0.00 0.81 0.81 92 1015.8
20260901203314 23 266 0.0 1.6 0.00 0.81 0.81 92 1015.6
20260901202331 23 316 0.0 0.0 0.00 0.81 0.81 92 1015.6
20260901201323 23 316 0.0 0.0 0.00 0.81 0.81 92 1015.5
20260901200345 23 316 0.0 0.0 0.00 0.81 0.81 91 1015.5
20260901195321 23 316 0.0 0.0 0.00 0.81 0.81 91 1015.5
20260901194319 23 316 0.0 0.0 0.00 0.81 0.81 91 1015.5
20260901193336 23 315 0.0 0.0 0.00 0.81 0.81 91 1015.6
20260901192332 24 315 0.0 1.6 0.00 0.81 0.81 90 1015.4
20260901191323 23 356 0.0 1.6 0.00 0.81 0.81 93 1015.3
20260901190317 23 356 0.0 0.0 0.00 0.81 0.81 94 1015.3
20260901185337 23 356 0.0 0.0 0.00 0.81 0.81 94 1015.5
20260901184336 22 356 0.0 0.0 0.00 0.81 0.81 95 1015.6
20260901183330 22 356 0.0 1.6 0.00 0.81 0.81 95 1015.9
20260901182328 22 42 0.0 0.0 0.00 0.81 0.81 95 1015.8
20260901181322 22 42 0.0 0.0 0.00 0.81 0.81 95 1015.7
20260901180319 22 42 0.0 1.6 0.00 0.81 0.81 94 1015.8
20260901175315 22 42 0.0 1.6 0.00 0.81 0.81 94 1015.8
20260901174354 22 42 0.0 0.0 0.00 0.81 0.81 95 1015.8
20260901173328 22 42 0.0 1.6 0.00 0.81 0.81 95 1015.5
20260901172317 22 33 0.0 0.0 0.00 0.81 0.81 96 1015.5
20260901171315 22 33 0.0 1.6 0.00 0.81 0.81 97 1015.7
20260901170333 22 33 0.0 0.0 0.00 0.81 0.81 97 1015.6
20260901165325 22 33 0.0 1.6 0.00 0.81 0.81 97 1015.5
20260901164324 22 33 0.0 0.0 0.00 0.81 0.81 97 1015.7
20260901163318 21 33 0.0 1.6 0.00 0.81 0.81 97 1016.2
20260901162329 21 31 0.0 0.0 0.00 0.81 0.81 97 1016.2
20260901121342 20 171 0.0 0.0 0.00 0.58 0.58 97 1017.0
20260901120328 20 172 0.0 0.0 0.00 0.58 0.58 97 1017.1
20260901115336 20 172 0.0 0.0 0.00 0.58 0.58 97 1017.1
20260901114327 20 172 0.0 0.0 0.00 0.58 0.58 97 1017.1
20260901113317 20 172 0.0 0.0 0.00 0.58 0.58 97 1016.9
20260901112334 20 171 0.0 0.0 0.00 0.58 0.58 97 1016.9
20260901111325 20 172 0.0 0.0 0.00 0.58 0.58 97 1017.0
20260901110314 20 172 0.0 0.0 0.00 0.58 0.58 97 1017.0
20260901105330 19 172 0.0 0.0 0.00 0.58 0.58 97 1017.0
20260901104321 19 172 0.0 0.0 0.00 0.58 0.58 97 1017.0
20260901103357 19 172 0.0 0.0 0.00 0.58 0.58 97 1016.9
20260901102328 19 172 0.0 0.0 0.00 0.58 0.58 97 1016.9
20260901101347 19 172 0.0 0.0 0.00 0.58 0.58 97 1016.5
20260901100315 19 171 0.0 0.0 0.00 0.58 0.58 97 1016.8
20260901095324 19 171 0.0 0.0 0.00 0.58 0.58 97 1016.7
20260901094343 19 171 0.0 0.0 0.00 0.58 0.58 97 1016.8
20260901093311 19 172 0.0 0.0 0.00 0.58 0.58 97 1016.8